Location: Krakow
(50.0830°N, 19.9170°E)
Time: 21:12:03
(UTC+01:00)

ISS - Visible Passes

Search period start: 30 November 2023 00:00
Search period end: 10 December 2023 00:00
Orbit: 416 x 417 km, 51.6° (Epoch: 30 November)

Date Brightness Start Highest point End Pass type
(mag) Time Alt. Az. Time Alt. Az. Time Alt. Az.
30 Nov -3.8 17:30:23 10° WNW 17:33:46 78° SSW 17:34:46 42° ESE visible
30 Nov -0.2 19:07:34 10° W 19:07:41 11° W 19:07:41 11° W visible
01 Dec -3.8 16:41:59 10° WNW 16:45:21 84° NNE 16:48:34 11° ESE visible
01 Dec -1.9 18:18:55 10° W 18:21:30 29° SW 18:21:30 29° SW visible
02 Dec -2.7 17:30:21 10° W 17:33:33 43° SSW 17:35:25 21° SSE visible
03 Dec -3.3 16:41:49 10° WNW 16:45:07 61° SSW 16:48:27 10° ESE visible
03 Dec -1.0 18:19:24 10° WSW 18:21:21 15° SW 18:22:26 13° SSW visible
04 Dec -1.3 17:30:21 10° W 17:33:01 22° SW 17:35:39 10° SSE visible
05 Dec -1.9 16:41:32 10° W 16:44:34 31° SSW 16:47:35 10° SSE visible
06 Dec -0.2 17:31:46 10° SW 17:32:05 10° SW 17:32:24 10° SW visible
07 Dec -0.6 16:41:32 10° W 16:43:38 16° SW 16:45:44 10° S visible
